User: anonymous   Login
Location: Unspecified
(0.0000°N, 0.0000°E)
Time: 21:40:30
(UTC+00:00)
Language:

XIAOXIANG 2 - Orbit

View from above orbital plane
View from above orbital plane
View from above satellite
View from above satellite

Ground track
Ground track

The orbit data is extracted from the following two-line orbital elements,

1 43155U 18008A   23276.51805605  .00033363  00000-0  11308-2 0  9998
2 43155  97.2846 326.6992 0009948 284.6938  75.3200 15.30435175315193
Epoch (UTC): 03 October 2023 12:26:00
Eccentricity: 0.0009948
inclination: 97.2846°
perigee height: 468 km
apogee height: 481 km
right ascension of ascending node: 326.6992°
argument of perigee: 284.6938°
revolutions per day: 15.30435175
mean anomaly at epoch: 75.3200°
orbit number at epoch: 31519

The dashed part of the orbit path shows where the satellite is in the earth's shadow,  

DLR